Torna al catalogo

COSMOS 2310

AttivoMilitarePO
NORAD 23526·PAYLOAD·🇷🇺 Russia

Lanciato Mar 21, 1995 da Plesetsk Cosmodrome

Loading…

Prossimi Passaggi (prossime 24 ore)

TLE

AggiornatoSource: Space-Track

Epoca: Sep 14, 2026, 23:11 UTC

1 23526U 95012A   26257.96614214  .00000033  00000-0  19143-4 0  9998
2 23526  82.9421  82.6861 0023345  46.9701 106.6182 13.72340866576238

Traccia COSMOS 2310 in tempo reale con AllMySat

Download on the App Store